Hourly Data Report for August 30, 2003

SHERBROOKE A
QUEBEC

45°26'00.000" N
71°41'00.000" W
241.40 m
7028124
71610
YSC

Download Data

Hourly Data (August 2003)
Hourly Data Report for August 30, 2003
TIME
LST
Temp Definition
°C
Dew Point Definition
°C
Rel Hum Definition
%
Precip. Amount Definition
mm

Wind Dir Definition
10's deg

Wind Spd Definition
km/h
Visibility Definition
km
Stn Press Definition
kPa
Hmdx Definition


Wind Chill Definition


Weather Definition


00:00 19.9 18.7 93   23 9 5.6 98.20      
01:00 19.9 18.0 89   25 15 9.7 98.22      
02:00 18.8 16.5 86   27 19 15.0 98.28      
03:00 18.1 15.8 86   25 9 15.0 98.31      
04:00 17.8 15.5 86   24 11 15.0 98.41      
05:00 17.3 15.2 87   27 11 15.0 98.47      
06:00 15.6 13.0 85   31 13 15.0 98.61      
07:00 14.1 11.1 82   33 15 24.1 98.73     Cloudy
08:00 14.2 10.5 78   29 13 24.1 98.80     Cloudy
09:00 13.5 10.3 81   30 9 24.1 98.87     Cloudy
10:00 13.7 9.7 77   30 17 24.1 98.95     Cloudy
11:00 12.8 8.7 76   31 13 24.1 99.02     Cloudy
12:00 13.5 8.8 73   29 11 24.1 99.08     Mostly Cloudy
13:00 14.1 8.4 69   30 19 24.1 99.11     Mostly Cloudy
14:00 14.4 8.6 68   30 13 24.1 99.16     Mostly Cloudy
15:00 13.3 7.9 70   30 17 24.1 99.18     Mostly Cloudy
16:00 14.3 7.9 65   30 11 24.1 99.25     Mostly Cloudy
17:00 13.4 7.9 69   29 9 15.0 99.29      
18:00 12.2 7.8 74   29 6 15.0 99.30      
19:00 8.4 6.3 87   25 4 15.0 99.36      
20:00 6.5 5.0 90   21 4 15.0 99.44      
21:00 5.2 4.2 93     0 15.0 99.47      
22:00 4.7 3.8 94     0 15.0 99.49      
23:00 3.1 2.4 95   9 4 1.3 99.50      

Notes on Data Quality.

Legend

  • E = Estimated
  • M = Missing
  • NA = Not Available*
  • [empty] = Indicates an unobserved value
Date modified: